Weather History for KWWD - November, 2010

Change the Weather History Date:

Tuesday, November 16, 2010

  Actual Average Record
Temperature  
Mean Temperature 52 °F -  
Max Temperature 53 °F 52 °F 69 °F (2001)
Min Temperature 50 °F 38 °F 26 °F (1996)
Degree Days  
Heating Degree Days 14    
Growing Degree Days 2 (Base 50)    
Moisture  
Dew Point 51 °F    
Average Humidity 96    
Maximum Humidity 100    
Minimum Humidity 94    
Precipitation  
Precipitation 0.15 in - - ()
Sea Level Pressure  
Sea Level Pressure 30.04 in    
Wind  
Wind Speed - (North)    
Max Wind Speed -    
Max Gust Speed -    
Visibility 4 miles    
Events      
Averages and records for this station are not official NWS values.
T = Trace of Precipitation, MM = Missing Value Source: NWS Daily Summary

Daily Weather History Graph

Daily Weather History Graph

Search for Another Location

Airport or City:

Trip Planner

Search our weather history database for the weather conditions in past years. The results will help you decide how hot, cold, wet, or windy it might be!

Date:

Astronomy

Nov. 16, 2010 Rise Set
Actual Time 6:43 AM EST 4:44 PM EST
Civil Twilight 6:14 AM EST 5:13 PM EST
Nautical Twilight 5:42 AM EST 5:45 PM EST
Astronomical Twilight 5:11 AM EST 6:17 PM EST
Moon 1:49 PM EST (11/16) 1:45 AM EST (11/16)
Length of Visible Light 10h 58m
Length of Day
10h 01m
Waxing Gibbous, 77% of the Moon is Illuminated
Nov 16
Waxing Gibbous
Nov 21
Full
Nov 28
Last Quarter
Dec 5
New
Dec 13
First Quarter

Hourly Weather History & Observations

Time (EST) Temp. Dew Point Humidity Pressure Visibility Wind Dir Wind Speed Gust Speed Precip Events Conditions
12:15 AM 53.6 °F 51.8 °F 94% 30.04 in 5.0 mi North - - 0.02 in   Overcast
12:35 AM 53.6 °F 51.8 °F 94% 30.04 in 5.0 mi North - - 0.04 in   Overcast
12:55 AM 51.8 °F 51.8 °F 100% 30.04 in 4.0 mi North - - 0.05 in   Overcast
1:15 AM 51.8 °F 50.0 °F 94% 30.04 in 5.0 mi North - - 0.03 in   Overcast
1:35 AM 51.8 °F 51.8 °F 100% 30.04 in 4.0 mi North - - 0.05 in   Overcast
1:55 AM 51.8 °F 51.8 °F 100% 30.04 in 4.0 mi North - - 0.07 in   Overcast
2:15 AM 51.8 °F 51.8 °F 100% 30.02 in 3.0 mi North - - 0.02 in   Overcast
2:35 AM 51.8 °F 50.0 °F 94% 30.01 in 3.0 mi North - - 0.02 in   Overcast
2:55 AM 51.8 °F 50.0 °F 94% 30.01 in 3.0 mi North - - 0.03 in   Mostly Cloudy
3:35 AM 51.8 °F 50.0 °F 94% 30.02 in 2.5 mi North - - N/A   Mostly Cloudy
3:55 AM 51.8 °F 50.0 °F 94% 30.02 in 3.0 mi North - - N/A   Overcast
4:15 AM 51.8 °F 50.0 °F 94% 30.02 in 3.0 mi North - - N/A   Mostly Cloudy
4:35 AM 51.8 °F 50.0 °F 94% 30.02 in 3.0 mi North - - N/A   Scattered Clouds
4:55 AM 51.8 °F 50.0 °F 94% 30.03 in 3.0 mi North - - N/A   Mostly Cloudy
5:15 AM 51.8 °F 50.0 °F 94% 30.04 in 2.5 mi North - - N/A   Overcast
5:35 AM 50.0 °F 50.0 °F 100% 30.05 in 3.0 mi North - - N/A   Overcast
5:55 AM 51.8 °F 50.0 °F 94% 30.05 in 5.0 mi North - - N/A   Overcast
6:15 AM 51.8 °F 50.0 °F 94% 30.05 in 4.0 mi North - - N/A   Overcast
6:35 AM 51.8 °F 50.0 °F 94% 30.05 in 5.0 mi North - - N/A   Scattered Clouds
6:55 AM 51.8 °F 50.0 °F 94% 30.04 in 5.0 mi North - - N/A   Scattered Clouds
7:15 AM 51.8 °F 50.0 °F 94% 30.05 in 5.0 mi North - - N/A   Mostly Cloudy
7:35 AM 51.8 °F 50.0 °F 94% 30.05 in 3.0 mi North - - N/A   Overcast
7:55 AM 51.8 °F 51.8 °F 100% 30.04 in 4.0 mi North - - N/A   Overcast
8:15 AM 51.8 °F 51.8 °F 100% 30.04 in 3.0 mi North - - N/A   Mostly Cloudy
8:35 AM 53.6 °F 51.8 °F 94% 30.04 in 6.0 mi North - - N/A   Unknown